Marshfield, WI

5:49 PM CST on November 18, 2019 (GMT -0600)
Marshfield Municipal

Weather History for KMFI - September, 2019

Change the Weather History Date:

Friday, September 27, 2019

  Actual Average Record
Temperature  
Mean Temperature 58 °F -  
Max Temperature 64 °F 66 °F 84 °F (1987)
Min Temperature 53 °F 42 °F 27 °F (1942)
Degree Days  
Heating Degree Days 6    
Growing Degree Days 8 (Base 50)    
Moisture  
Dew Point 53 °F    
Average Humidity 85    
Maximum Humidity 93    
Minimum Humidity 72    
Precipitation  
Precipitation 0.04 in - - ()
Sea Level Pressure  
Sea Level Pressure 29.70 in    
Wind  
Wind Speed 10 mph (SW)    
Max Wind Speed 16 mph    
Max Gust Speed 25 mph    
Visibility 10 miles    
Events Rain    
Averages and records for this station are not official NWS values.
T = Trace of Precipitation, MM = Missing Value Source: NWS Daily Summary

Daily Weather History Graph

Daily Weather History Graph

Search for Another Location

Airport or City:

Astronomy

Sep. 27, 2019 Rise Set
Actual Time 6:53 AM CDT 6:49 PM CDT
Civil Twilight 6:24 AM CDT 7:18 PM CDT
Nautical Twilight 5:50 AM CDT 7:52 PM CDT
Astronomical Twilight 5:15 AM CDT 8:26 PM CDT
Moon 5:08 AM CDT (9/27) 6:44 PM CDT (9/27)
Length of Visible Light 12h 53m
Length of Day
11h 55m
Waning Crescent, 2% of the Moon is Illuminated
Sep 27
Waning Crescent
Sep 28
New
Oct 5
First Quarter
Oct 13
Full
Oct 21
Last Quarter

Hourly Weather History & Observations

Time (CDT) Temp. Dew Point Humidity Pressure Visibility Wind Dir Wind Speed Gust Speed Precip Events Conditions
12:54 AM 55.0 °F 48.0 °F 77% 29.78 in 10.0 mi South 9.2 mph - 0.00 in Rain Light Rain
1:54 AM 55.0 °F 48.0 °F 77% 29.75 in 10.0 mi South 11.5 mph - 0.00 in   Overcast
2:54 AM 57.0 °F 48.0 °F 72% 29.72 in 10.0 mi South 12.7 mph - N/A   Overcast
3:54 AM 57.0 °F 48.9 °F 74% 29.69 in 10.0 mi South 15.0 mph - N/A   Overcast
4:54 AM 55.9 °F 48.9 °F 77% 29.67 in 10.0 mi South 15.0 mph 25.3 mph N/A   Mostly Cloudy
5:54 AM 55.9 °F 48.9 °F 77% 29.66 in 10.0 mi South 12.7 mph 23.0 mph N/A   Overcast
6:29 AM 55.9 °F 48.9 °F 77% 29.65 in 10.0 mi South 16.1 mph 25.3 mph N/A   Overcast
6:54 AM 55.9 °F 50.0 °F 80% 29.65 in 10.0 mi South 13.8 mph - 0.00 in   Overcast
7:18 AM 54.0 °F 51.1 °F 90% 29.65 in 4.0 mi South 12.7 mph 23.0 mph 0.02 in Rain Rain
7:54 AM 54.0 °F 52.0 °F 93% 29.66 in 6.0 mi South 9.2 mph - 0.02 in Rain Light Rain
8:47 AM 55.0 °F 53.1 °F 93% 29.64 in 10.0 mi South 8.1 mph - 0.00 in   Overcast
8:54 AM 55.0 °F 53.1 °F 93% 29.65 in 10.0 mi South 8.1 mph - 0.00 in   Overcast
9:10 AM 55.0 °F 53.1 °F 93% 29.64 in 10.0 mi South 9.2 mph - N/A   Overcast
9:54 AM 55.9 °F 54.0 °F 93% 29.65 in 10.0 mi South 8.1 mph - N/A   Overcast
10:21 AM 55.9 °F 54.0 °F 93% 29.65 in 10.0 mi South 5.8 mph - N/A   Overcast
10:42 AM 57.0 °F 54.0 °F 89% 29.65 in 9.0 mi SSW 4.6 mph - 0.00 in Rain Light Rain
10:54 AM 57.0 °F 55.0 °F 93% 29.66 in 10.0 mi WSW 8.1 mph - 0.00 in   Overcast
11:54 AM 57.9 °F 55.9 °F 93% 29.66 in 10.0 mi SSW 5.8 mph - 0.01 in   Overcast
12:54 PM 59.0 °F 57.0 °F 93% 29.67 in 10.0 mi SW 4.6 mph - 0.00 in   Overcast
1:05 PM 60.1 °F 57.0 °F 90% 29.66 in 10.0 mi SSW 6.9 mph - N/A   Overcast
1:21 PM 60.1 °F 57.0 °F 90% 29.66 in 10.0 mi SW 5.8 mph - N/A   Overcast
1:54 PM 60.1 °F 57.9 °F 93% 29.64 in 8.0 mi South 8.1 mph - 0.00 in Rain Light Rain
2:41 PM 61.0 °F 57.9 °F 90% 29.67 in 10.0 mi WNW 6.9 mph - 0.01 in Rain Light Rain
2:54 PM 63.0 °F 59.0 °F 87% 29.67 in 10.0 mi WNW 8.1 mph - 0.01 in   Overcast
3:22 PM 63.0 °F 57.9 °F 84% 29.66 in 10.0 mi NW 10.4 mph - N/A   Overcast
3:43 PM 63.0 °F 57.9 °F 84% 29.68 in 10.0 mi NNW 9.2 mph - N/A   Scattered Clouds
3:50 PM 64.4 °F 57.2 °F 77% 29.68 in 10.0 mi NNW 9.2 mph - N/A   Mostly Cloudy
3:54 PM 64.0 °F 57.9 °F 80% 29.68 in 10.0 mi NW 6.9 mph - N/A   Mostly Cloudy
4:54 PM 64.9 °F 57.0 °F 75% 29.70 in 10.0 mi NNW 5.8 mph - N/A   Mostly Cloudy
5:03 PM 64.9 °F 55.9 °F 73% 29.70 in 10.0 mi NNW 9.2 mph - N/A   Mostly Cloudy
5:54 PM 63.0 °F 55.0 °F 75% 29.73 in 10.0 mi NW 8.1 mph - N/A   Scattered Clouds
6:54 PM 60.1 °F 54.0 °F 80% 29.76 in 10.0 mi NW 5.8 mph - N/A   Partly Cloudy
7:54 PM 57.0 °F 52.0 °F 83% 29.79 in 10.0 mi North 3.5 mph - N/A   Clear
8:54 PM 54.0 °F 50.0 °F 86% 29.80 in 10.0 mi NNW 8.1 mph - N/A   Clear
9:54 PM 54.0 °F 48.9 °F 83% 29.82 in 10.0 mi North 6.9 mph - N/A   Scattered Clouds
10:54 PM 53.1 °F 48.9 °F 86% 29.86 in 10.0 mi North 5.8 mph - N/A   Clear
11:54 PM 53.1 °F 48.9 °F 86% 29.89 in 10.0 mi North 8.1 mph - N/A   Partly Cloudy